EHI
1 11 27 33 27 20 15 13 13 14 15 14 12 8 6 6 4 3 2 1 0 0 0 0 0 0 0 0 0 0 0 0 0 0 0 0 0 0 0 0 0 0 0
2 13 30 35 29 22 17 14 14 15 15 13 10 8 6 5 3 3 2 1 0 0 0 0 0 0 0 0 0 0 0 0 0 0 0 0 0 0 0 0 0 0 0
4 14 29 36 32 25 19 16 16 16 15 12 9 6 5 3 2 1 1 0 0 0 0 0 0 0 0 0 0 0 0 0 0 0 0 0 0 0 0 0 0 0 0
5 13 26 34 33 27 21 17 17 16 15 12 8 5 3 1 0 0 0 0 0 0 0 0 0 0 0 0 0 0 0 0 0 0 0 0 0 0 0 0 0 0 0
5 11 24 35 34 28 22 19 18 16 14 9 6 4 3 1 0 0 0 0 0 0 0 0 0 0 0 0 0 0 0 0 0 0 0 0 0 0 0 0 0 0 0
4 9 23 35 37 30 23 19 18 16 11 6 4 3 3 2 1 0 0 0 0 0 0 0 0 0 0 0 0 0 0 0 0 0 0 0 0 0 0 0 0 0 0
5 8 20 33 37 31 22 17 17 16 10 5 3 3 3 2 1 0 0 0 0 0 0 0 0 0 0 0 0 0 0 0 0 0 0 0 0 0 0 0 0 0 0
7 9 16 27 32 28 21 17 17 15 10 6 4 3 3 2 1 0 0 0 0 0 0 0 0 0 0 0 0 0 0 0 0 0 0 0 0 0 0 0 0 0 0
7 7 11 17 22 21 18 17 17 14 9 6 4 3 2 2 1 0 0 0 0 0 0 0 0 0 0 0 0 0 0 0 0 0 0 0 0 0 0 0 0 0 0
4 4 6 10 13 15 14 14 13 10 6 4 2 1 1 1 0 0 0 0 0 0 0 0 0 0 0 0 0 0 0 0 0 0 0 0 0 0 0 0 0 0 0
1 1 3 6 9 11 12 11 9 5 2 1 1 0 0 0 0 0 0 0 0 0 0 0 0 0 0 0 0 0 0 0 0 0 0 0 0 0 0 0 0 0 0
1 0 1 4 7 9 11 10 6 2 0 0 0 0 0 0 0 0 0 0 0 0 0 0 0 0 0 0 0 0 0 0 0 0 0 0 0 0 0 0 0 0 0
2 1 1 4 5 7 9 9 6 2 0 0 0 0 0 0 0 0 0 0 0 0 0 0 0 0 0 0 0 0 0 0 0 0 0 0 0 0 0 0 0 0 0
2 1 2 4 5 5 6 8 7 4 1 0 0 0 0 0 0 0 0 0 0 0 0 0 0 0 0 0 0 0 0 0 0 0 0 0 0 0 0 0 0 0 0
2 3 4 4 4 4 4 6 6 4 2 1 0 0 0 0 0 0 0 0 0 0 0 0 0 0 0 0 0 0 0 0 0 0 0 0 0 0 0 0 0 0 0
3 4 6 5 4 3 3 4 4 3 2 1 0 0 0 0 0 0 0 0 0 0 0 0 0 0 0 0 0 0 0 0 0 0 0 0 0 0 0 0 0 0 0
5 7 8 6 5 3 2 3 3 2 1 0 0 0 0 0 0 0 0 0 0 0 0 0 0 0 0 0 0 0 0 0 0 0 0 0 0 0 0 0 0 0 0
7 8 8 6 4 2 1 2 2 2 1 0 0 0 0 0 0 0 0 0 0 0 0 0 0 0 0 0 0 0 0 0 0 0 0 0 0 0 0 0 0 0 0
7 8 8 5 2 1 0 1 2 1 0 0 0 0 0 0 0 0 0 0 0 0 0 0 0 0 0 0 0 0 0 0 0 0 0 0 0 0 0 0 0 0 0
5 7 7 4 1 0 0 0 0 0 0 0 0 0 0 0 0 0 0 0 0 0 0 0 0 0 0 0 0 0 0 0 0 0 0 0 0 0 0 0 0 0 0
3 4 4 2 1 0 0 0 0 0 0 0 0 0 0 0 0 0 0 0 0 0 0 0 0 0 0 0 0 0 0 0 0 0 0 0 0 0 0 0 0 0 0
1 2 2 1 0 0 0 0 0 0 0 0 0 0 0 0 0 0 0 0 0 0 0 0 0 0 0 0 0 0 0 0 0 0 0 0 0 0 0 0 0 0 0
0 0 0 0 0 0 0 0 0 0 0 0 0 0 0 0 0 0 0 0 0 0 0 0 0 0 0 0 0 0 0 0 0 0 0 0 0 0 0 0 0 0 0
0 0 0 0 0 0 0 0 0 0 0 0 0 0 0 0 0 0 0 0 0 0 0 0 0 0 0 0 0 0 0 0 0 0 0 0 0 0 0 0 0 0 0
1 1 0 0 0 0 0 0 0 0 0 0 0 0 0 0 0 0 0 0 0 0 0 0 0 0 0 0 0 0 0 0 0 0 0 0 0 0 0 0 0 0 0
1 2 1 0 0 0 0 0 0 0 0 0 0 0 0 0 0 0 0 0 0 0 0 0 0 0 0 0 0 0 0 0 0 0 0 0 0 0 0 0 0 0 0
Wind_Speed
8 11 21 22 22 21 20 19 19 18 18 18 17 17 17 17 16 16 16 16 15 15 15 16 16 16 17 17 17 17 16 16 16 15 14 14 14 14 14 14 12 7 14
12 14 22 23 23 22 21 20 19 18 18 17 17 17 17 17 16 16 16 16 15 15 15 16 16 16 16 16 16 16 16 16 15 15 14 11 12 13 14 13 13 9 15
13 15 19 22 23 22 21 20 19 19 18 17 17 17 17 16 16 16 16 16 16 15 15 16 16 16 15 15 16 16 16 15 15 14 12 6 7 13 14 14 14 15 15
14 14 15 22 22 22 21 20 20 19 18 18 18 17 17 17 16 16 16 16 16 16 15 15 15 15 15 15 15 15 15 15 14 12 6 5 5 11 13 14 14 15 15
13 12 15 22 22 22 21 21 20 19 19 18 18 18 17 17 16 16 16 16 16 16 15 15 15 15 14 14 15 15 14 14 13 10 6 5 4 11 13 14 14 14 15
12 11 15 22 23 22 21 21 20 19 19 18 18 17 17 17 16 16 16 16 15 15 15 14 14 14 14 14 14 14 13 13 10 5 5 5 4 11 13 13 14 15 15
12 10 14 21 23 22 22 21 20 20 19 18 18 17 17 17 16 16 16 15 15 15 14 14 14 13 13 13 14 13 13 12 6 5 5 4 5 12 13 14 14 14 14
11 11 13 21 21 22 21 21 20 19 19 18 18 18 17 17 17 16 16 15 15 14 14 14 13 13 13 13 13 13 12 10 7 5 4 4 8 12 12 13 12 13 13
9 9 10 13 16 20 20 20 20 19 19 18 18 17 17 17 17 16 16 15 14 14 13 13 13 13 13 13 13 12 11 10 6 4 4 3 8 11 12 12 12 12 13
8 8 9 9 11 12 14 18 18 18 18 18 17 15 15 15 16 16 14 14 14 13 13 13 13 12 12 12 12 11 11 8 4 4 3 3 9 10 11 11 12 12 13
10 8 8 9 10 10 11 14 15 16 16 15 13 15 13 7 8 9 10 13 14 13 13 12 12 12 11 10 11 11 8 3 3 3 2 4 8 9 10 11 11 11 11
16 13 10 10 11 11 10 9 8 8 9 8 7 9 7 6 6 7 10 11 12 12 12 12 12 11 8 4 6 7 3 3 3 2 2 5 7 9 10 10 10 10 10
16 14 12 12 11 11 8 7 5 5 6 7 9 9 7 6 5 4 4 5 6 7 5 7 7 4 4 3 3 3 3 3 2 2 2 5 6 8 8 8 8 9 9
14 15 13 12 11 11 9 7 6 6 6 6 8 9 7 5 5 4 3 4 3 3 4 4 3 4 4 4 4 4 3 2 2 1 2 5 5 6 7 7 7 7 7
14 15 14 13 13 11 10 8 8 7 7 7 7 8 8 6 6 5 4 3 4 4 4 4 4 4 4 3 3 3 3 2 2 2 2 5 5 5 5 5 5 6 6
16 16 14 14 14 12 10 8 8 7 7 7 7 8 9 7 6 6 5 4 4 4 4 4 4 4 3 2 3 3 2 2 2 2 2 3 5 4 3 3 4 4 4
16 15 15 15 14 14 12 10 8 7 8 8 7 9 9 8 8 7 5 5 4 4 4 4 4 3 3 3 3 2 2 2 1 1 1 1 2 4 3 2 2 2 3
14 15 16 14 15 14 12 10 8 8 8 8 7 8 9 9 9 7 6 5 5 4 4 4 3 3 2 2 2 1 1 1 1 1 1 1 1 1 3 3 2 2 2
15 15 16 15 16 15 13 10 9 8 8 8 8 8 9 10 10 8 6 5 6 5 4 4 3 3 3 2 2 1 1 0 1 1 1 1 0 0 1 2 3 3 3
13 14 15 14 15 14 11 9 8 8 8 8 8 9 11 9 10 8 6 7 7 5 4 4 4 2 2 3 2 2 1 0 0 1 2 1 1 1 0 1 1 3 4
12 14 15 15 15 13 11 11 11 11 10 8 8 10 12 11 11 9 7 7 7 6 6 6 4 4 2 2 3 1 2 1 1 1 1 1 2 2 1 1 1 1 2
14 15 16 16 16 16 12 11 9 8 8 8 7 9 12 12 12 10 9 8 8 6 7 6 5 4 2 3 3 2 1 3 2 1 1 2 2 1 2 2 2 1 1
13 16 16 17 17 17 14 9 8 7 6 7 10 10 11 13 13 11 11 9 9 8 8 8 7 7 4 2 2 4 3 3 2 2 2 2 2 2 2 1 2 2 1
14 14 16 17 17 17 16 14 15 13 12 12 10 9 10 12 13 12 12 11 10 8 8 8 7 5 6 4 2 1 2 3 2 2 2 1 2 3 2 2 2 2 2
12 12 13 16 17 17 17 17 17 14 11 7 8 11 11 11 12 13 12 11 11 9 9 9 8 7 5 5 5 3 2 1 2 2 3 3 2 2 2 2 2 2 2
10 10 11 14 17 18 19 18 18 16 13 12 12 13 12 9 10 13 13 12 11 10 10 10 10 9 7 6 5 4 4 4 4 3 3 3 2 2 1 1 2 2 2
Wind_Direction
184 172 174 165 159 157 155 150 146 142 139 136 134 132 128 125 123 121 118 115 111 109 107 106 104 101 99 96 94 91 88 83 80 77 75 76 79 79 76 73 68 57 65
160 167 170 164 161 159 156 152 147 144 141 138 136 134 131 129 127 124 120 117 115 113 111 109 107 104 101 99 97 94 90 85 80 74 68 66 74 78 75 73 72 68 67
155 165 167 163 161 160 158 153 148 146 144 142 139 138 135 133 130 128 124 120 117 114 113 111 109 105 102 101 99 96 91 86 80 72 60 38 58 76 73 70 70 67 66
157 162 164 163 162 161 159 154 151 150 148 146 143 141 139 137 133 131 127 122 119 115 114 113 111 107 104 102 101 97 93 87 80 69 45 30 37 75 72 71 69 67 64
158 161 164 163 163 162 159 156 154 152 150 148 146 144 142 139 136 132 127 123 120 118 117 115 112 110 107 105 103 100 95 88 78 60 39 29 32 75 74 72 68 67 67
159 161 165 164 164 162 160 158 156 154 152 150 148 147 145 142 138 133 128 125 123 122 120 118 115 112 111 109 105 102 97 88 70 51 37 29 34 75 76 73 69 67 65
160 163 166 165 164 162 161 159 158 155 153 152 150 149 147 143 138 135 132 129 126 125 124 123 120 117 114 112 108 105 100 90 73 54 39 29 55 77 75 71 68 66 64
160 163 167 167 164 162 161 160 160 158 156 155 154 151 147 143 140 139 137 133 131 129 127 127 125 122 117 114 111 107 101 87 70 55 42 36 76 78 75 71 69 67 67
160 163 166 168 165 163 161 161 161 160 158 157 156 153 149 146 145 143 139 137 134 132 130 129 127 123 121 118 114 109 101 86 68 49 39 39 81 79 76 72 70 70 68
166 167 166 163 161 160 160 161 160 160 159 158 156 150 146 147 146 143 141 141 139 136 134 131 127 123 121 119 116 110 98 78 60 46 29 60 80 80 76 73 72 71 68
177 175 170 164 160 157 157 162 160 160 159 156 152 146 140 134 133 138 140 145 144 141 137 134 129 122 115 114 115 106 90 71 61 40 15 74 84 83 79 77 74 71 68
184 182 175 168 162 159 161 159 158 156 154 147 144 141 130 126 127 130 145 145 143 140 137 133 125 111 96 83 99 96 80 75 58 30 20 74 88 89 84 78 75 72 69
184 183 179 171 165 162 158 156 153 149 146 141 140 137 131 125 124 121 129 135 127 122 110 107 94 86 90 92 91 92 92 78 56 22 14 60 90 90 85 80 76 74 70
186 186 180 172 167 164 159 157 153 150 149 148 147 144 139 134 131 131 123 119 114 109 105 97 97 96 95 98 110 109 98 88 65 29 9 48 79 88 87 83 80 76 71
192 189 183 174 170 166 160 161 159 156 154 151 151 151 147 144 144 140 133 127 125 121 118 114 110 110 106 101 108 117 111 99 79 48 16 33 57 80 88 84 80 77 72
196 191 184 179 174 168 167 166 162 159 155 153 156 157 153 150 150 148 142 140 138 135 130 127 128 122 116 111 109 117 122 111 90 65 34 22 34 55 74 81 74 73 69
197 191 187 183 177 174 170 169 164 162 159 161 161 160 159 155 156 153 151 153 151 140 129 118 112 106 111 107 106 114 119 123 119 94 53 32 22 27 30 50 51 55 52
195 192 190 186 181 179 175 171 166 165 163 165 164 164 165 162 159 156 158 162 153 142 136 132 127 114 114 115 113 105 107 125 140 149 100 60 32 14 5 2 360 2 360
195 192 190 188 183 182 177 173 168 167 169 168 166 169 171 168 165 163 165 162 153 147 146 147 131 131 137 133 122 92 73 145 189 172 187 201 216 348 349 351 4 350 334
194 192 190 187 184 180 175 170 168 171 174 172 173 175 172 172 169 166 165 163 157 153 155 149 138 124 131 136 108 71 20 326 242 216 222 228 241 249 260 342 3 347 333
191 190 191 189 185 180 181 181 181 184 181 180 180 177 176 175 173 172 170 166 167 170 169 155 138 134 127 128 101 40 348 327 257 244 235 234 246 247 237 238 245 284 320
194 192 192 193 188 186 189 188 185 177 178 179 179 180 180 179 178 179 175 175 173 168 165 164 148 142 142 155 135 117 340 327 304 250 237 230 238 243 240 235 232 242 268
199 196 195 194 192 190 186 177 168 163 162 177 186 188 187 184 182 182 180 176 175 175 180 178 168 159 159 179 166 151 159 226 287 306 263 242 236 235 243 243 239 240 247
205 200 198 195 193 191 184 182 183 185 189 192 186 185 183 186 185 184 181 180 178 181 180 181 178 169 156 169 177 155 151 153 160 296 305 282 250 238 236 233 234 236 234
206 201 200 196 195 192 189 188 190 196 195 177 172 177 183 188 189 187 184 183 182 184 183 180 177 178 173 170 168 158 141 112 144 168 269 300 304 261 233 225 227 234 236
208 203 199 198 199 194 192 191 194 196 190 178 181 185 187 188 190 191 188 187 186 186 186 185 183 183 186 178 175 168 164 167 180 175 213 250 272 284 270 240 230 233 234